Location: ?????????
(56.1833°N, 38.5000°E)
Time: 00:30:07
(UTC+00:00)

Daily predictions for brighter satellites

Satellite Brightness Start Highest point End
(mag) Time Altitude Azimuth Time Altitude Azimuth Time Altitude Azimuth
Cosmos 2278 Rocket 3.9 00:06:04 28° NE 00:06:04 28° NE 00:10:13 10° E
H-2A R/B 4.2 00:04:50 10° NNE 00:07:06 22° NE 00:07:06 22° NE
Cosmos 2333 Rocket 3.7 00:15:27 33° ENE 00:15:27 33° ENE 00:19:05 10° NE
CENTAUR R/B 3.5 00:18:07 50° N 00:18:07 50° N 00:25:40 10° ENE
COSMOS 2455 4.1 00:18:49 35° E 00:18:49 35° E 00:23:16 10° NE
ACS3 Solar Sail 2.8 00:13:53 10° NNE 00:19:29 39° E 00:19:36 39° E
ADEOS II 3.9 00:16:02 10° NNE 00:18:18 26° NNE 00:18:18 26° NNE
Cosmos 2369 Rocket 4.3 00:21:34 19° N 00:21:49 19° N 00:25:45 10° NE
USA 234 4.4 00:20:50 10° ESE 00:24:10 32° SE 00:24:10 32° SE
Resurs 1-4 Rocket 4.0 00:24:10 10° NNE 00:26:10 24° NNE 00:26:10 24° NNE
Cosmos 2360 Rocket 3.3 00:35:37 41° E 00:35:37 41° E 00:40:03 10° NE
Cosmos 2322 Rocket 3.2 00:35:54 42° ENE 00:35:54 42° ENE 00:40:12 10° NE
SL-16 R/B 3.1 00:42:20 44° NE 00:42:20 44° NE 00:46:11 10° NE
Cosmos 1943 Rocket 3.2 00:43:12 40° NE 00:43:25 40° NE 00:48:36 10° ESE
Cosmos 2278 4.4 00:50:20 50° NE 00:50:20 50° NE 00:54:31 10° NE
ADEOS Rocket 3.5 00:44:15 10° NNE 00:50:37 66° ESE 00:51:51 56° SSE
Cosmos 1140 Rocket 4.4 00:55:57 44° E 00:55:57 44° E 01:00:08 10° SE
NOSS 3-2 (C) 3.9 00:56:08 54° N 00:56:08 54° N 01:02:09 10° ENE
Cosmos 1697 Rocket 4.4 00:59:30 23° N 00:59:30 23° N 01:02:45 10° NNE
CZ-2C R/B 4.0 00:56:03 10° NNE 01:00:34 34° E 01:03:07 21° SE
SeaSat 1 4.3 01:00:42 10° NNE 01:02:54 22° N 01:02:54 22° N
Cosmos 2219 Rocket 2.8 01:13:22 46° SSE 01:14:22 52° ESE 01:19:52 10° NE
SJ 16-02 3.9 01:13:41 13° N 01:15:42 17° NE 01:18:30 10° E
USA 59 Rocket 2.5 01:19:17 11° ESE 01:19:17 11° ESE 01:19:58 10° ESE
NOSS 3-2 (A) 4.1 01:21:44 43° NNW 01:22:38 46° N 01:29:41 10° ENE
ALOS 4.4 01:18:38 10° N 01:19:42 16° N 01:19:42 16° N
Cosmos 1707 Rocket 4.2 01:28:36 53° E 01:28:36 53° E 01:32:53 10° NNE
USA 267 3.6 01:24:29 10° ENE 01:30:55 55° SSE 01:32:57 41° SSW
Meteor 2-19 Rocket 4.3 01:33:10 73° WSW 01:33:36 77° WNW 01:39:45 10° N
Cosmos 1727 Rocket 4.4 01:28:02 10° S 01:34:06 62° E 01:40:16 10° NNE
CZ-2D R/B 3.5 01:30:30 10° N 01:33:08 26° NNW 01:33:08 26° NNW
Cosmos 407 Rocket 4.1 01:34:28 30° N 01:36:48 54° NE 01:41:47 10° SE
Cosmos 1023 Rocket 4.3 01:38:51 78° SSE 01:38:51 78° SSE 01:43:34 10° SSE
Cosmos 2333 4.1 01:39:27 66° SSW 01:40:19 88° ESE 01:46:09 10° NE
Cosmos 967 Rocket 4.4 01:40:01 64° WSW 01:41:03 80° NW 01:47:33 10° NE
Cosmos 2150 Rocket 4.0 01:42:53 62° S 01:43:46 81° ESE 01:49:05 10° NNE
Cosmos 1980 Rocket 3.6 01:46:11 25° NNW 01:46:11 25° NNW 01:50:41 10° NNE
USA 238 DEB 3.6 01:45:38 55° WNW 01:46:54 67° NNW 01:54:02 10° NE
USA 238 3.6 01:45:44 55° W 01:47:00 67° NNW 01:54:08 10° NE
Cosmos 1269 Rocket 3.8 01:48:35 73° WSW 01:48:35 73° WSW 01:53:51 10° SSE
COSMO-SKYMED 1 4.0 01:44:52 10° SE 01:48:38 35° ENE 01:52:25 10° N
H-2A R/B 2.6 01:43:59 10° N 01:47:35 41° NNW 01:47:35 41° NNW
Cosmos 2228 Rocket 3.3 01:48:33 42° SSE 01:49:52 67° E 01:54:17 10° NNE
Cosmos 2278 Rocket 2.2 01:47:56 38° NNW 01:50:12 83° NE 01:55:53 10° SE
Cosmos 2173 Rocket 3.8 01:44:47 10° NNW 01:50:56 89° E 01:57:02 10° S
Cosmos 2251 Rocket 4.4 01:50:42 15° NNW 01:54:56 48° NE 02:00:08 10° SE
Cosmos 2333 Rocket 2.3 01:57:29 52° WNW 01:57:56 54° NW 02:03:36 10° NNE
Cosmos 1153 Rocket 4.4 01:53:12 10° NNW 01:59:12 57° W 02:05:15 10° S
ADEOS II 3.3 01:55:58 10° N 01:59:06 27° NNW 01:59:06 27° NNW
Lacrosse 4 Rocket 3.5 02:01:49 16° N 02:02:19 16° N 02:04:52 10° NE
ACS3 Solar Sail 1.8 01:56:53 10° N 02:02:41 53° WNW 02:03:45 47° W
COSMOS 2455 2.8 02:01:58 50° WSW 02:03:26 68° NW 02:09:30 10° NE
Cosmos 2369 Rocket 3.7 02:03:21 14° NNW 02:07:36 32° NE 02:12:40 10° E
Cosmos 2298 Rocket 3.9 02:06:27 46° SW 02:08:02 75° WNW 02:13:24 10° NNE
Resurs 1-4 Rocket 3.7 02:04:39 10° N 02:07:11 20° NNW 02:07:11 20° NNW
CENTAUR R/B 3.5 02:05:13 27° NW 02:09:30 59° NNE 02:18:18 10° E
Meteor 1-24 Rocket 4.4 02:04:22 10° S 02:09:57 55° E 02:15:22 10° NNE
Cosmos 1939 Rocket 3.1 02:06:25 10° NNE 02:10:17 65° ESE 02:13:56 11° S
USA 234 4.0 02:05:30 10° SSE 02:11:11 31° SW 02:11:31 31° SW
Lacrosse 5 rocket 1.0 02:13:17 71° E 02:13:17 71° E 02:16:20 10° ENE
Cosmos 2123 Rocket 4.3 02:09:31 10° S 02:15:40 67° E 02:21:49 10° NNE
BlueWalker 3 4.0 02:20:01 16° S 02:20:01 16° S 02:21:15 10° SSE
Cosmos 2360 Rocket 2.4 02:17:23 43° W 02:18:40 51° NW 02:24:13 10° NNE
Cosmos 2322 Rocket 2.5 02:17:43 41° WNW 02:18:52 47° NW 02:24:23 10° NNE
Meteor 2-5 Rocket 4.4 02:14:42 10° S 02:20:31 60° E 02:26:16 10° NNE
Cosmos 2084 4.4 02:19:56 30° NNW 02:20:38 32° N 02:24:20 10° ENE
Cosmos 1782 Rocket 3.9 02:17:18 10° N 02:21:44 67° ENE 02:26:05 10° SSE
Cosmos 2016 Rocket 4.0 02:15:44 10° NNW 02:22:09 90° WSW 02:28:32 10° S
SL-16 R/B 2.9 02:24:11 32° NW 02:25:08 34° NW 02:30:17 10° NNE
Cosmos 44 Rocket 4.0 02:26:24 35° WSW 02:26:24 35° WSW 02:31:00 10° S
Cosmos 1943 Rocket 2.1 02:24:44 30° NW 02:27:26 60° WSW 02:32:49 10° SSE
Helios 1A Rocket 2.2 02:24:45 10° SSE 02:28:09 83° WSW 02:29:00 48° NNW
NOSS 2-3 (C) 4.1 02:27:53 34° NNW 02:28:26 36° NNW 02:32:41 10° NE
Meteor 2-14 Rocket 4.3 02:24:03 10° SSW 02:30:08 68° WNW 02:36:14 10° N
Cosmos 1461 3.6 02:30:30 34° NNW 02:30:42 34° NNW 02:34:25 10° NE
NOSS 2-1 (C) 4.1 02:29:04 21° S 02:30:45 37° SE 02:33:33 10° ENE
ARGOS 3.2 02:25:55 10° N 02:31:12 53° WNW 02:34:51 20° SW
PAYLOAD A 4.1 02:28:02 10° NNE 02:33:26 65° WNW 02:38:43 10° SSW
Timation 2 Rocket 4.3 02:29:48 23° NW 02:33:43 49° WSW 02:39:53 10° S
Meteor 2-21 Rocket 4.5 02:27:50 10° S 02:33:58 82° E 02:40:05 10° NNE
Cosmos 1125 Rocket 4.4 02:34:08 28° NW 02:34:40 29° NW 02:39:17 10° NNE
NOSS 2-1 (D) 3.8 02:33:15 23° SSW 02:34:51 42° SE 02:37:42 10° ENE
H-2A R/B 3.2 02:31:07 10° N 02:34:54 56° WNW 02:35:56 41° WSW
ADEOS Rocket 3.7 02:30:11 10° N 02:35:53 37° WNW 02:38:45 26° WSW
H-2A R/B 4.4 02:33:44 10° NNW 02:33:55 11° NNW 02:33:55 11° NNW
Aureole 3 Rocket 4.4 02:32:54 10° N 02:36:39 43° ENE 02:41:37 10° SE
Cosmos 1140 Rocket 3.9 02:35:56 35° W 02:36:49 38° WSW 02:41:29 10° S
Cosmos 1908 Rocket 3.6 02:33:13 10° NNW 02:37:34 53° W 02:41:52 10° S
Okean 1-7 3.1 02:36:46 38° WSW 02:37:49 47° WNW 02:41:57 10° N
Cosmos 1862 Rocket 3.9 02:38:04 39° WNW 02:38:17 40° WNW 02:42:22 10° N
CZ-2C R/B 2.6 02:34:01 10° N 02:38:48 50° WNW 02:42:20 18° SW
SeaSat 1 4.3 02:38:21 10° NNE 02:41:09 15° NNW 02:42:32 14° NNW
Cosmos 2061 Rocket 4.0 02:35:37 10° NNW 02:41:53 86° ENE 02:48:06 10° S
Cosmos 1809 Rocket 4.5 02:36:02 10° SSW 02:42:02 56° WNW 02:48:02 10° N
Cosmos 1300 Rocket 3.4 02:38:07 10° NNW 02:42:30 76° W 02:46:48 10° S
NOSS 3-1 (C) 3.3 02:40:03 14° SW 02:44:20 69° SE 02:50:25 10° NE
Cosmos 2100 Rocket 4.2 02:39:32 10° NNW 02:45:17 43° W 02:51:00 10° SSW
NOSS 3-2 (C) 4.3 02:43:31 23° WNW 02:47:15 47° N 02:54:31 10° ENE
Iridium 4 Rocket 2.9 02:45:47 10° N 02:50:13 65° W 02:54:23 10° S
Cosmos 1812 3.9 02:48:25 10° N 02:51:07 31° ENE 02:53:46 10° SE
SJ 16-02 1.6 02:50:21 10° NNW 02:54:40 68° ENE 02:58:56 10° SE
Cosmos 1190 Rocket 3.9 02:51:22 10° NNW 02:56:42 84° WSW 03:01:57 10° SSE
Cosmos 676 Rocket 4.3 02:52:20 10° NNW 02:57:38 71° ENE 03:02:51 10° SE
IRS-1D 3.4 02:52:45 10° NNE 02:57:48 85° WNW 03:02:44 10° SSW
Cosmos 2219 Rocket 2.5 02:55:06 22° WSW 02:58:27 45° NW 03:03:55 10° NNE
SL-24 R/B - RUBIN 2 3.9 02:58:33 19° WSW 03:02:12 65° NW 03:06:56 10° NE
NOSS 0 Rocket 4.2 02:56:15 10° SSW 03:02:22 73° ESE 03:08:32 10° NE
NOSS 2-2 (C) 4.1 03:00:58 20° NW 03:02:53 39° NNE 03:06:48 10° E
USA 59 Rocket -1.0 03:05:02 19° SW 03:07:10 84° SE 03:10:06 10° NE
COSMOS 2428 2.6 03:02:09 10° SW 03:07:50 77° NW 03:13:34 10° NE
Cosmos 371 Rocket 3.3 03:06:31 10° NNW 03:11:25 86° ENE 03:16:16 10° SSE
SL-08 RB Rocket 4.4 03:07:43 10° N 03:11:45 31° WNW 03:15:43 10° WSW
Cosmos 1869 2.9 03:08:20 10° NNW 03:11:51 88° W 03:15:21 10° S
FengYun 1-2 T 4.3 03:06:56 10° NNE 03:12:22 59° WNW 03:17:50 10° SW
Okean 2 Rocket 4.5 03:08:22 10° N 03:12:30 39° ENE 03:16:36 10° SE
NOSS 2-2 (D) 4.2 03:11:13 17° NW 03:13:17 33° NNE 03:16:54 10° E
CZ-2D R/B 4.0 03:12:28 10° NNW 03:13:56 11° NW 03:14:23 11° NW
USA 267 3.3 03:07:43 10° ENE 03:14:18 90° SSW 03:20:18 13° WSW
NOSS 3-2 (A) 4.2 03:09:05 15° NW 03:14:31 60° NNE 03:22:29 10° ESE
Cosmos 1954 Rocket 3.9 03:09:38 10° NNW 03:14:52 75° WSW 03:20:01 10° SSE
Cosmos 2322 3.7 03:09:46 10° SW 03:15:25 64° NW 03:21:05 10° NNE
Cosmos 1725 Rocket 4.4 03:11:05 10° NNW 03:16:56 41° W 03:22:47 10° SSW
Cosmos 407 Rocket 4.1 03:14:38 13° NW 03:18:30 33° WSW 03:23:00 10° SSW
PKM 4.3 03:14:49 17° W 03:20:04 74° SSW 03:23:09 10° ESE
COSMO-SKYMED 1 3.0 03:20:11 10° SSW 03:23:59 35° W 03:27:49 10° NNW
SKYMED 2 4.4 03:20:46 10° SSW 03:24:34 29° W 03:28:22 10° NNW
DMSP B5D1-3 4.5 03:20:16 10° S 03:25:21 68° WSW 03:30:29 10° NNW
Cosmos 1484 Rocket 2.6 03:23:23 10° NNE 03:26:58 82° ESE 03:30:31 10° SSW
Aureole 3 4.5 03:20:46 10° S 03:27:03 79° E 03:32:24 10° NNE
H-2A R/B 3.6 03:24:40 10° NNW 03:27:09 14° NW 03:28:04 13° NW
Cosmos 1980 3.8 03:22:04 10° SSW 03:27:44 82° ESE 03:33:27 10° NE
Cosmos 2233 Rocket 4.2 03:22:19 10° NNW 03:28:20 47° W 03:34:18 10° SSW
Cosmos 2228 Rocket 4.3 03:26:01 14° W 03:28:26 21° WNW 03:31:52 10° N
NOSS 3-1 (A) 3.6 03:23:36 10° SW 03:28:27 65° SE 03:34:30 10° NE
Cosmos 1464 Rocket 4.3 03:23:49 10° N 03:30:04 72° ENE 03:36:11 10° SSE
Cosmos 1656 Rocket 3.7 03:25:08 10° NW 03:30:48 72° WSW 03:36:27 10° SSE
Cosmos 1980 Rocket 4.0 03:28:13 10° NW 03:32:04 18° N 03:35:55 10° NE
Cosmos 2297 3.9 03:27:06 10° NNW 03:32:49 76° NE 03:38:27 10° SE
Cosmos 2278 Rocket 3.2 03:29:48 12° NW 03:33:42 25° WSW 03:38:10 10° SSW
NOSS 2-1 (E) 2.6 03:33:29 10° WSW 03:36:47 75° NW 03:39:48 10° NE
Cosmos 2251 Rocket 4.0 03:32:08 10° NW 03:37:07 40° WSW 03:42:05 10° S
Cosmos 332 Rocket 4.5 03:33:06 10° NNW 03:37:52 54° NE 03:42:34 10° SE
Cosmos 1400 Rocket 2.9 03:35:01 10° NNW 03:38:49 74° ENE 03:42:31 10° SSE
USA 238 DEB 4.3 03:33:04 13° WNW 03:38:51 48° N 03:46:01 10° ENE
USA 238 4.3 03:33:10 13° WNW 03:38:57 48° N 03:46:07 10° ENE
Cosmos 304 Rocket 3.8 03:35:09 10° NW 03:39:51 58° WSW 03:44:31 10° S
Lacrosse 4 Rocket 2.9 03:37:58 10° NNW 03:41:26 26° NNE 03:44:51 10° E
Cosmos 1703 Rocket 4.3 03:39:15 10° SW 03:43:07 30° WNW 03:47:02 10° N
Cosmos 2333 Rocket 3.5 03:39:30 12° WNW 03:43:30 23° NNW 03:48:06 10° NNE
Cosmos 1939 Rocket 4.1 03:41:04 10° N 03:43:53 19° WNW 03:46:41 10° WSW
Cosmos 2237 Rocket 2.2 03:38:21 10° SW 03:44:02 86° WNW 03:49:45 10° NE
ACS3 Solar Sail 3.2 03:41:03 10° N 03:44:30 16° NW 03:47:53 10° W
IGS 5A 3.4 03:43:57 10° NNE 03:48:00 88° ESE 03:52:01 10° SSW
Cosmos 2292 Rocket 4.4 03:45:06 10° SW 03:49:27 41° WNW 03:55:00 10° N
Sich 1 Rocket 4.0 03:45:05 10° N 03:49:39 69° ENE 03:54:10 10° SSE
Lacrosse 5 rocket 0.8 03:46:58 12° W 03:50:06 78° N 03:53:26 10° E
COSMOS 2455 3.7 03:45:06 11° W 03:50:20 33° NNW 03:55:47 10° NE
NOSS 2-2 (E) 3.9 03:48:06 10° NW 03:51:18 44° NNE 03:55:18 10° E
Cosmos 2369 Rocket 2.2 03:46:32 10° NW 03:52:15 84° SW 03:57:56 10° SSE
Cosmos 2151 Rocket 3.6 03:48:22 10° NNW 03:52:54 81° W 03:57:24 10° S
Meteor 1-24 Rocket 4.3 03:48:07 10° SW 03:53:18 35° WNW 03:58:21 10° N
CZ-4 R/B 4.4 03:49:47 10° N 03:54:18 37° WNW 03:58:45 10° SW
Cosmos 1072 Rocket 4.4 03:52:17 10° NNW 03:58:24 74° W 04:04:30 10° S
Cosmos 2242 Rocket 3.5 03:54:39 10° SSW 03:59:00 69° WNW 04:03:26 10° N
Cosmos 2084 3.9 03:55:57 10° NW 03:59:58 50° NNE 04:03:55 10° E
Cosmos 968 Rocket 3.5 03:55:14 10° NNW 04:00:29 79° WSW 04:05:44 10° SSE
CENTAUR R/B 3.3 03:52:55 10° NW 04:00:47 79° SW 04:10:03 10° SE
Cosmos 1624 Rocket 4.3 03:56:46 10° SSW 04:01:55 75° ESE 04:07:07 10° NNE
Cosmos 2360 Rocket 3.5 03:59:35 10° WNW 04:03:58 22° NNW 04:08:22 10° NNE
Meteor 2-5 Rocket 4.4 03:58:58 10° SW 04:04:17 34° WNW 04:09:33 10° N
Cosmos 2322 Rocket 3.6 03:59:58 10° WNW 04:04:18 22° NNW 04:08:39 10° NNE
Gbstr 26 Del rocket 4.4 04:01:04 10° WSW 04:06:17 56° S 04:12:43 10° E
Cosmos 1420 Rocket 4.0 04:02:31 10° SW 04:07:47 70° WNW 04:13:06 10° NNE
ARIANE 5 R/B 3.1 04:03:03 10° NNE 04:08:04 65° ESE 04:13:08 10° S
Cosmos 1461 4.3 04:05:17 10° NW 04:08:31 23° N 04:11:45 10° NE
Cosmos 1943 Rocket 3.8 04:07:36 10° WNW 04:10:01 13° W 04:12:26 10° WSW
SL-16 R/B 3.8 04:06:58 10° NW 04:10:58 19° N 04:14:57 10° NE
